Regional Weather Roundup
Issued by NWS

Home | Current Version | Previous Version | Graphics & Text | Print | Product List | Glossary On
Versions: 1 2 3 4 5 6 7 8 9 10 11 12 13 14 15 16 17 18 19 20 21 22 23 24 25 26 27 28 29 30 31 32 33 34 35 36 37 38 39 40 41 42 43 44 45 46 47 48 49 50
000
ASUS43 KMKX 011800
RWRWI

WISCONSIN REGIONAL WEATHER ROUNDUP
NATIONAL WEATHER SERVICE MILWAUKEE/SULLIVAN WI
100 PM CDT MON SEP 01 2014

NOTE: "FAIR" INDICATES FEW OR NO CLOUDS BELOW 12,000 FEET WITH NO
SIGNIFICANT WEATHER AND/OR OBSTRUCTIONS TO VISIBILITY.

WIZ001-002-006>008-014>016-023>028-011900-
NORTHWEST WISCONSIN

CITY           SKY/WX    TMP DP  RH WIND       PRES   REMARKS
SUPERIOR ARPT  PTSUNNY   68  59  73 NW7       29.66R
ASHLAND        CLOUDY    68  58  70 W8G17     29.65S
6HR MIN TEMP:  63; 6HR MAX TEMP:  69; 6HR PCP:  0.27;

HAYWARD        CLOUDY    68  59  73 W7        29.68R
6HR MIN TEMP:  63; 6HR MAX TEMP:  68; 6HR PCP:  0.18;

SIREN          PTSUNNY   69  57  64 NW12G17   29.70S
RICE LAKE      PTSUNNY   71  59  66 W10G16    29.71S
6HR MIN TEMP:  64; 6HR MAX TEMP:  71;

LADYSMITH      PTSUNNY   69  64  82 W8        29.70S
EAU CLAIRE     NOT AVBL
MENOMONIE      MOCLDY    74  61  61 W8        29.69F
NEW RICHMOND   PTSUNNY   72  63  73 W12       29.72S
OSCEOLA        PTSUNNY   73  63  70 W7        29.74S
$$

WIZ003>005-009-010-017-018-011900-
NORTH CENTRAL WISCONSIN

CITY           SKY/WX    TMP DP  RH WIND       PRES   REMARKS
WOODRUFF       CLOUDY    67  64  89 W9        29.66S
RHINELANDER    CLOUDY    66  62  87 W15G23    29.68S
6HR MIN TEMP:  61; 6HR MAX TEMP:  67; 6HR PCP:  0.30;

EAGLE RIVER    CLOUDY    64  64 100 W10       29.65R
LAND O LAKES   LGT RAIN  64  63  94 W7        29.65R
PHILLIPS       CLOUDY    66  62  85 W6        29.67S
6HR MIN TEMP:  62; 6HR MAX TEMP:  67; 6HR PCP:  0.33;

TOMAHAWK       CLOUDY    65  62  90 W6        29.68S
MEDFORD        CLOUDY    66  62  89 W6        29.69S
MERRILL        CLOUDY    69  63  82 W9        29.67F
$$

WIZ029-030-035-036-043>047-011900-
CENTRAL WISCONSIN

CITY           SKY/WX    TMP DP  RH WIND       PRES   REMARKS
WAUSAU         CLOUDY    68  63  84 SW10      29.67S
6HR MIN TEMP:  64; 6HR MAX TEMP:  68; 6HR PCP:  0.13;

MOSINEE        NOT AVBL
MARSHFIELD     CLOUDY    70  64  81 W10       29.69R
6HR MIN TEMP:  63; 6HR MAX TEMP:  70; 6HR PCP:  0.07;

STEVENS POINT  CLOUDY    69  64  84 SW9       29.68F
6HR MIN TEMP:  63; 6HR MAX TEMP:  69; 6HR PCP:  0.10;

WAUPACA        CLOUDY    71  67  86 SW9       29.68F
6HR MIN TEMP:  67; 6HR MAX TEMP:  72; 6HR PCP:  0.28;

WAUTOMA        NOT AVBL
WISC RAPIDS    CLOUDY    69  64  84 W10       29.70S
6HR MIN TEMP:  65; 6HR MAX TEMP:  71; 6HR PCP:  0.18;

CAMP DOUGLAS   NOT AVBL
$$

WIZ011>013-019>022-031-037>040-048>050-011900-
NORTHEAST WISCONSIN

CITY           SKY/WX    TMP DP  RH WIND       PRES   REMARKS
ANTIGO         CLOUDY    69  64  84 SW14G21   29.68S
STURGEON BAY   CLOUDY    70  63  78 SW12      29.68S
6HR MIN TEMP:  66; 6HR MAX TEMP:  70;

GREEN BAY      PTSUNNY   71  67  87 SW9       29.68F
6HR MIN TEMP:  66; 6HR MAX TEMP:  71; 6HR PCP:  0.27;

MANITOWOC      NOT AVBL
APPLETON       PTSUNNY   70  66  88 SW13      29.70S
CLINTONVILLE   CLOUDY    70  64  83 SW9       29.66F
OSHKOSH        CLOUDY    70  66  87 SW6       29.69F
6HR MIN TEMP:  69; 6HR MAX TEMP:  73; 6HR PCP:  0.13;

$$

WIZ032>034-041-042-053>061-011900-
SOUTHWEST WISCONSIN

CITY           SKY/WX    TMP DP  RH WIND       PRES   REMARKS
LA CROSSE      PTSUNNY   78  65  63 W8        29.69F HX  80
6HR MIN TEMP:  66; 6HR MAX TEMP:  78; 6HR PCP:  0.31;

SPARTA         PTSUNNY   73  64  72 SW7       29.70F
VIROQUA        CLOUDY    71  69  96 W9        29.74S
BOSCOBEL       LGT RAIN  74  66  76 SW8       29.73S
6HR MIN TEMP:  67; 6HR MAX TEMP:  74; 6HR PCP:  0.13;

PRAIRIE DU CHI DRIZZLE   74  65  74 SW7       29.72F
PLATTEVILLE    PTSUNNY   74  67  79 SW12G20   29.76F
$$

WIZ056-057-062-063-064-067-068-011900-
SOUTH CENTRAL WISCONSIN

CITY           SKY/WX    TMP DP  RH WIND       PRES   REMARKS
BARABOO/DELLS  CLOUDY    68  64  85 SW9       29.73R
LONE ROCK      NOT AVBL
WATERTOWN      PTSUNNY   76  66  70 SW13G21   29.71F
MADISON        CLOUDY    73  64  73 W8        29.73S
6HR MIN TEMP:  69; 6HR MAX TEMP:  76; 6HR PCP: TRACE;

MIDDLETON      CLOUDY    73  64  73 W13       29.74S
MONROE         CLOUDY    73  64  73 W16       29.75F
JANESVILLE     NOT AVBL
$$

WIZ051-052-058>065-066-070>072-011900-
SOUTHEAST WISCONSIN

CITY           SKY/WX    TMP DP  RH WIND       PRES   REMARKS
MILWAUKEE      PTSUNNY   78  64  61 W15G24    29.72F HX  80
6HR MIN TEMP:  71; 6HR MAX TEMP:  79; 6HR PCP:  0.02;

WAUKESHA       MOSUNNY   75  64  69 SW14      29.73
MILWAUKEE/TIMM MOSUNNY   77  63  61 SW14G23   29.73F
RACINE         MOSUNNY   82  67  60 W12G18    29.74F HX  84
6HR MIN TEMP:  73; 6HR MAX TEMP:  82; 6HR PCP: TRACE;

BURLINGTON     MOSUNNY   76  65  68 SW10      29.74F
KENOSHA        PTSUNNY   78  67  68 W14       29.74F HX  80
6HR MIN TEMP:  72; 6HR MAX TEMP:  80; 6HR PCP:  0.01;

FOND DU LAC    CLOUDY    74  65  73 SW14G22   29.70F
6HR MIN TEMP:  68; 6HR MAX TEMP:  75; 6HR PCP:  0.12;

SHEBOYGAN      PTSUNNY   77  67  71 SW9G18    29.69F
6HR MIN TEMP:  70; 6HR MAX TEMP:  77; 6HR PCP:  0.10;

WEST BEND      CLOUDY    77  64  65 SW14      29.71F
JUNEAU         PTSUNNY   74  65  74 SW14      29.73S
$$

LSZ147-162-011900-
LAKE SUPERIOR

STATION/POSITION TIME  TEMP    WIND        PRES    WAVE
                       AIR SEA DIR/SP/G            HT/PER
                 (UTC) (F)     (DEG/KT/KT) (MB)    (FT/S)
W MID LAKE BUOY  1650   60 58  240/ 12/ 14 1001.0S   1/ 3
DEVILS ISLAND    1700   63     240/ 17/ 19 1002.5R
PORT WING        1740   65     250/  9/ 15 1004.4R
SAXON HARBOR     1700   68     280/  4/  5 1003.4R
$$

LMZ867-665-643>646-011900-
LAKE MICHIGAN

STATION/POSITION TIME  TEMP    WIND        PRES    WAVE
                       AIR SEA DIR/SP/G            HT/PER
                 (UTC) (F)     (DEG/KT/KT) (MB)    (FT/S)
N MID LAKE BUOY  1650   67 65  220/ 16/ 17 1004.0F   4/ 6
NORTHPORT PIER   1740   68     260/  4/ 22 1003.7F
KEWAUNEE LAKESHO 1700   70     260/  9/ 12 1004.7F
SHEBOYGAN LAKESH 1700   70 55  220/  8/  9 1006.0F
ATWATER BUOY     1700   73     230/ 14/ 17 1007.7F
MILWAUKEE LAKESH 1700   76     260/ 17/ 24   N/A
S MID LAKE BUOY  1650   71 69  230/ 12/ 14 1007.8R
KENOSHA   LAKESH 1700   76     230/ 15/ 20 1007.5F
$$

TC  - TEMPERATURE IN CELSIUS
VSB - VISIBILITY IN STATUTE MILES
WCI - WIND CHILL INDEX
HX  - HEAT INDEX



USA.gov is the U.S. government's official web portal to all federal, state and local government web resources and services.